Location: Colebrook
(42.0017°N, 73.0973°W)
Time: 14:52:13
(UTC-05:00)

Vanguard 2 - Pass Details

Date: 03 November 2021
Orbit: 554 x 2936 km, 32.9° (Epoch: 04 December)

Event Time Altitude Azimuth Distance (km) Brightness Sun altitude
Rises 19:54:41 0° 195° (SSW) 6,211 12.3 -24.8°
Reaches altitude 10° 20:00:04 10° 181° (S) 5,474 11.8 -25.7°
Maximum altitude 20:11:32 22° 139° (SE) 4,775 11.1 -27.9°
Enters shadow 20:12:17 22° 136° (SE) 4,782 11.1 -28.0°
